Regional Weather Roundup
Issued by NWS

Home | Current Version | Previous Version | Graphics & Text | Print | Product List | Glossary On
Versions: 1 2 3 4 5 6 7 8 9 10 11 12 13 14 15 16 17 18 19 20 21 22 23 24 25 26 27 28 29 30 31 32 33 34 35 36 37 38 39 40 41 42 43 44 45 46 47 48 49 50
000
ASUS43 KFSD 300410
RWRSD

WEATHER ROUNDUP FOR SOUTH DAKOTA
NATIONAL WEATHER SERVICE SIOUX FALLS SD
1100 PM CDT SAT AUG 29 2015

NOTE: "FAIR" INDICATES FEW OR NO CLOUDS BELOW 12,000 FEET WITH NO
SIGNIFICANT WEATHER AND/OR OBSTRUCTIONS TO VISIBILITY.


SDZ001>005-009-010-012>017-300500-
NORTHWEST AND NORTH CENTRAL SOUTH DAKOTA

CITY           SKY/WX    TMP DP  RH WIND       PRES   REMARKS
BUFFALO          N/A     75  53  46 SE13      29.80F
FAITH            N/A     74  57  55 SE14      29.88F
MOBRIDGE       CLEAR     73  69  87 SE9       29.84F
$$

SDZ012>016-024>037-041>051-057-063-072>074-300500-
SOUTHWEST AND SOUTH CENTRAL SOUTH DAKOTA

CITY           SKY/WX    TMP DP  RH WIND       PRES   REMARKS
RAPID CTY ARPT PTCLDY    71  47  42 S5        29.93S
PIERRE         CLEAR     77  61  57 S14       29.87S
CUSTER         PTCLDY    71  38  29 S5        30.13S
ELLSWORTH AFB  PTCLDY    72  49  43 S3        29.92F
PHILIP         PTCLDY    72  56  57 VRB3      29.88S
PINE RIDGE     CLEAR     81  39  22 S15G24    29.98S
WINNER         FAIR      77  60  55 S17       29.94F
$$

SDZ004>011-016>023-039-040-300500-
NORTHEAST SOUTH DAKOTA

CITY           SKY/WX    TMP DP  RH WIND       PRES   REMARKS
ABERDEEN       CLEAR     69  66  90 S12       29.89F
WATERTOWN      CLEAR     65  62  90 S12       29.95F
BROOKINGS      CLEAR     64  61  88 S12       30.01S
SISSETON         N/A     67  64  90 S9        29.90F
$$

SDZ017-020-022-023-036>040-048>070-300500-
SOUTHEAST SOUTH DAKOTA

CITY           SKY/WX    TMP DP  RH WIND       PRES   REMARKS
SIOUX FALLS    PTCLDY    65  62  90 S8        30.01S
HURON          CLEAR     68  65  90 S13       29.92F
CHAMBERLAIN    CLEAR     69  64  83 SE8       29.93S
MITCHELL       CLEAR     69  66  90 SE9       29.96S
YANKTON        CLEAR     66  63  88 SE8       29.99F
$$

ABBREVIATIONS USED IN REMARKS
   TC - TEMPERATURE IN CELSIUS
  WCI - WIND CHILL INDEX
   HX - HEAT INDEX
  VSB - VISIBILITY



USA.gov is the U.S. government's official web portal to all federal, state and local government web resources and services.